Torna al catalogo

INSAT 3C

AttivoComunicazioniGEO
NORAD 27298·PAYLOAD·🇮🇳 India

Lanciato Jan 23, 2002 da Guiana Space Centre

Loading…

TLE

AggiornatoSource: Space-Track

Epoca: Sep 14, 2026, 10:04 UTC

1 27298U 02002A   26257.42007780 -.00000198  00000-0  00000-0 0  9991
2 27298   8.6634  62.4666 0014173 149.8314 229.5235  0.99300353 89987

Traccia INSAT 3C in tempo reale con AllMySat

Download on the App Store